Home   Weather   Fairfield   Past weeks
Flag for USA

Past Weather in Fairfield, Alabama, USA — Yesterday and Last 2 Weeks

Now
79 °F

Passing clouds.


Feels Like: 82 °F
Forecast: 84 / 72 °F
Wind: 6 mph from North

Location: Birmingham International Airport

Current Time: Jul 5, 2020 at 9:55:03 pm

Latest Report: Jul 5, 2020 at 8:53 pm


Visibility: 10 mi

Pressure: 29.91 "Hg

Humidity: 79%

Dew Point: 72 °F

Location of FairfieldLocation

Past Weather in Fairfield — Graph

°F

Fairfield Temperature Yesterday

Maximum temperature yesterday: 92 °F (at 12:53 pm)
Minimum temperature yesterday: 75 °F (at 5:53 am)
Average temperature yesterday: 82 °F

High & Low Weather Summary for the Past Weeks

 TemperatureHumidityPressure
High94 °F (Jul 3, 1:53 pm)97% (Jun 22, 3:53 pm)30.25 "Hg (Jun 22, 3:53 pm)
Low68 °F (Jun 26, 3:53 am)44% (Jul 3, 1:53 pm)29.86 "Hg (Jul 4, 4:53 pm)
Average78 °F76%30.00 "Hg
* Reported Jun 20 7:53 pm — Jul 5 7:53 pm, Fairfield. Weather by CustomWeather, © 2020

Note: Actual official high and low records may vary slightly from our data, if they occured in-between our weather recording intervals... More about our weather records

Fairfield Weather History for the Previous 24 Hours

Scroll right to see more
 ConditionsComfort  
Time TempWeatherWind HumidityBarometerVisibility
7:53 pm
Sun, Jul 5
82 °FMore clouds than sun.No wind67%29.90 "Hg10 mi
6:53 pm81 °FMostly cloudy.No wind69%29.90 "Hg10 mi
6:27 pm80 °FThundershowers. Cloudy.5 mph69%29.93 "Hg10 mi
5:53 pm85 °FThunderstorms. Partly sunny.21 mph61%29.89 "Hg10 mi
5:32 pm88 °FThundershowers. Partly sunny.12 mph55%29.90 "Hg10 mi
4:53 pm91 °FBroken clouds.8 mph49%29.87 "Hg10 mi
3:53 pm91 °FPartly sunny.6 mph52%29.86 "Hg10 mi
2:53 pm91 °FScattered clouds.9 mph47%29.88 "Hg10 mi
1:53 pm92 °FScattered clouds.7 mph51%29.90 "Hg10 mi
12:53 pm91 °FScattered clouds.6 mph50%29.93 "Hg10 mi
11:53 am89 °FScattered clouds.5 mph55%29.95 "Hg10 mi
10:53 am89 °FScattered clouds.5 mph59%29.95 "Hg10 mi
9:53 am86 °FScattered clouds.3 mph63%29.95 "Hg10 mi
8:53 am84 °FPartly sunny.No wind67%29.95 "Hg10 mi
7:53 am80 °FPartly sunny.3 mph74%29.94 "Hg10 mi
6:53 am78 °FPartly sunny.3 mph79%29.93 "Hg10 mi
5:53 am76 °FScattered clouds.No wind82%29.92 "Hg10 mi
4:53 am74 °FClear.No wind91%29.92 "Hg8 mi
3:53 am76 °FPassing clouds.No wind85%29.91 "Hg8 mi
2:53 am75 °FFog.3 mph88%29.89 "Hg4 mi
1:53 am75 °FPassing clouds.3 mph85%29.90 "Hg3 mi
12:53 am75 °FFog.3 mph88%29.91 "Hg4 mi
11:53 pm
Sat, Jul 4
78 °FPassing clouds.No wind76%29.92 "Hg7 mi
10:53 pm78 °FPassing clouds.No wind76%29.93 "Hg4 mi
9:53 pm78 °FOvercast.5 mph76%29.93 "Hg6 mi
Weather by CustomWeather, © 2020

See weather overview